Location: Mahannah Oil Field
(37.4664°N, 96.6003°W)
Time: 21:58:51
(UTC+00:00)

A-11 Canister half - Visible Passes

Search period start: 21 January 2021 00:00
Search period end: 31 January 2021 00:00
Orbit: 1524 x 1684 km, 47.3° (Epoch: 20 January)

Date Brightness Start Highest point End Pass type
(mag) Time Alt. Az. Time Alt. Az. Time Alt. Az.
21 Jan 9.2 01:57:25 10° WNW 02:06:49 53° NNE 02:08:41 48° NE visible
21 Jan 10.3 04:02:44 10° WNW 04:07:00 31° WNW 04:07:00 31° WNW visible
22 Jan 9.3 01:35:44 10° WNW 01:45:05 52° NNE 01:48:22 39° ENE visible
22 Jan 9.9 03:41:05 10° WNW 03:46:41 41° WNW 03:46:41 41° WNW visible
23 Jan 9.3 01:14:02 10° WNW 01:23:20 51° NNE 01:28:06 31° ENE visible
23 Jan 9.5 03:19:25 10° WNW 03:26:25 54° WNW 03:26:25 54° WNW visible
24 Jan 9.4 00:52:21 10° WNW 01:01:36 50° N 01:07:53 23° ENE visible
24 Jan 9.1 02:57:45 10° WNW 03:06:12 72° WNW 03:06:12 72° WNW visible
24 Jan 11.2 05:03:41 10° WNW 05:04:31 13° WNW 05:04:31 13° WNW visible
25 Jan 9.4 00:30:40 10° WNW 00:39:52 50° N 00:47:44 16° E visible
25 Jan 8.9 02:36:06 10° WNW 02:45:51 88° NNE 02:46:03 86° E visible
25 Jan 10.9 04:41:55 10° WNW 04:44:23 18° W 04:44:23 18° W visible
26 Jan 9.4 00:08:58 10° WNW 00:18:08 49° N 00:27:35 10° E visible
26 Jan 8.9 02:14:26 10° WNW 02:24:10 85° NNE 02:25:58 65° ESE visible
26 Jan 10.6 04:20:09 10° WNW 04:24:18 25° W 04:24:18 25° W visible
27 Jan 8.9 01:52:47 10° WNW 02:02:29 82° NNE 02:05:59 47° ESE visible
27 Jan 10.3 03:58:24 10° WNW 04:04:19 32° WSW 04:04:19 32° WSW visible
28 Jan 9.0 01:31:08 10° WNW 01:40:47 80° NNE 01:46:06 33° ESE visible
28 Jan 10.0 03:36:40 10° WNW 03:44:27 38° WSW 03:44:27 38° WSW visible
29 Jan 9.0 01:09:29 10° WNW 01:19:06 77° NNE 01:26:20 21° ESE visible
29 Jan 9.8 03:14:56 10° WNW 03:23:46 41° SW 03:24:42 40° SW visible
30 Jan 9.0 00:47:49 10° WNW 00:57:24 75° NNE 01:06:44 12° ESE visible
30 Jan 9.8 02:53:14 10° WNW 03:02:08 43° SW 03:05:07 35° S visible
